TIMESTAMP,CO2_1_1_1,H2O_1_1_1,TAU_1_1_1,TAU_SSITC_TEST_1_1_1,H_1_1_1,H_SSITC_TEST_1_1_1,LE_1_1_1,LE_SSITC_TEST_1_1_1,FC_1_1_1,FC_SSITC_TEST_1_1_1,WD_0_0_1,WS_0_0_1,WS_MAX_0_0_1,U_SIGMA_0_0_1,V_SIGMA_0_0_1,W_SIGMA_0_0_1,USTAR_0_0_1,MO_LENGTH_0_0_1,ZL_0_0_1,FETCH_MAX_0_0_1,FETCH_70_0_0_1,FETCH_80_0_0_1,FETCH_90_0_0_1,PA_0_0_1,RH_0_0_1,TA_0_0_1,VPD_0_0_1,T_SONIC_0_0_1,T_SONIC_SIGMA_0_0_1
[yyyymmddHHMMSS],[mmolCO2 mol-1],[mmolH2O mol-1],[kg m-1 s-2],[#],[W m-2],[#],[W m-2],[#],[umolCO2 m-2 s-1],[#],[Decimal degrees],[m s-1],[m s-1],[m s-1],[m s-1],[m s-1],[m s-1],[m],[#],[m],[m],[m],[m],[kPa],[%],[deg C],[hPa],[deg C],[deg C]
20220320003000,418.23630816101439,4.1230114171869117,0.11076665618219830,0,-28.866602624137087,0,3.5069985524942422,0,0.38677387759725168,0,286.90651280224091,2.5232529112035715,5.5926966951604760,0.65122444927457812,0.51699300769191447,0.39622597380989583,0.30744448572283617,83.542749102673767,0.22742847469202937,102.21483056175205,186.88131001505766,223.64919793545073,279.98225663590699,93.409833833800590,47.109655172413795,4.1162068965517165,4.3250396113040521,3.8723570308375201,0.19674267543508644
20220320010000,418.28393876652177,4.0777890442593900,6.4628958028668554E-002,1,-10.649145557046928,1,2.3092759168107730,1,0.29652110578906865,0,277.25399604526979,2.2785585291017418,4.0759272295245097,0.44377286022109408,0.44597408713918890,0.26557035818139946,0.23457409163176701,100.59646389446047,0.18887343813529683,113.37968731573609,207.29422900976718,248.07824843986054,310.56452901083975,93.427942423177086,48.523333333333333,3.5423333333333176,4.0427585834229811,3.3164028879801890,0.21742173380766372
20220320013000,418.00747962983883,3.9728609770069006,7.3558991226918558E-002,1,-15.662231631285625,0,2.8141147748605917,1,0.32904781354627710,0,263.96695416591501,2.3396625257648065,4.4020490891895196,0.48910722531519829,0.38747045048744561,0.27397512370479993,0.25006260966007449,82.872965783495800,0.22926656262836270,116.39250141297899,212.80261406729980,254.67037849255297,318.81709358620168,93.449801003472231,48.475666666666669,3.1906666666666865,3.9471789755215680,2.9478250308566203,0.24103755055794238
20220320020000,418.28105349527050,3.9611276241167341,0.13385812990333501,1,-40.998800977225663,0,0.22179262132770469,2,0.48299223011097764,1,257.16411968925217,2.6303313586516190,4.8189664789454119,0.61896172107646030,0.50075188624571254,0.37854386755326058,0.33701490061958506,77.509322177014255,0.24513180436036036,114.09883503375019,208.60906039869778,249.65176579978802,312.53438602510641,93.468304832248265,49.937666666666665,2.7326666666666597,3.7126372882777754,2.4921415286593742,0.25465010082938400
20220320023000,418.47944383152731,4.0449805080422445,7.9413492944078748E-002,0,-26.560259770082755,0,-2.1084644948715763,0,0.22308694360639364,0,253.68344844793654,2.6440767760198516,4.7190353429374179,0.52387006199420139,0.46241479149083875,0.31986491277454432,0.25947019637753099,54.610338545102152,0.34791946921017680,105.91356870665825,193.64378299597348,231.74215093390799,290.11367344523694,93.487112608940961,51.698666666666668,2.5426666666666620,3.5339828359990930,2.3288986918131513,0.21719390094885635
20220320030000,418.68966980987523,4.0816284769606996,6.7681366709691590E-002,0,-22.536840246649856,0,-3.0897371765046997,0,6.1665166933065271E-002,1,241.88175095537045,2.6986902394308760,4.6571393603042006,0.52844094341177328,0.46861888734023505,0.31671798573212362,0.23941014036032066,50.565542859770048,0.37574994601939499,100.09923338921914,183.01332364855631,219.02020615225109,274.18730821948850,93.509514696893930,53.051333333333332,2.3100000000000023,3.3785683791630969,2.0732446710275667,0.25008418327663468
20220320033000,419.10146819990649,4.1689882565961325,9.5915194088618885E-002,0,-31.981940626316071,0,-2.6351692161049680,0,0.13489062966194090,0,238.09193945935874,2.8792241054170375,5.1520258211569745,0.64308993310122042,0.55261087374338913,0.38280678414423780,0.28483948127150288,60.015466407376131,0.31658505944169130,98.844235813890037,180.71878781990736,216.27423279798606,270.74967542900072,93.522528189981188,55.326333333333331,2.0203333333333262,3.1490756954180696,1.8048170715189826,0.27463368903408042
20220320040000,419.18783467974879,4.2257520120732384,0.14229087720534664,0,-47.405392322133601,0,0.36991893860525310,1,0.30501824148249851,0,246.01076947188730,3.1430556613213034,6.2558215118065439,0.72111705114633262,0.56142641971158458,0.42901890733034398,0.34717627515438915,73.316865129851024,0.25914910527542639,105.70944320520658,193.27057647683023,231.29551804876849,289.55454207242849,93.524830491970491,54.551333333333332,2.4080000000000155,3.2935418991422307,2.2532909452650074,0.34721875981009892
20220320043000,419.64650783591071,4.1906030634505784,0.11477954353131889,0,-33.005666282150990,0,-1.1690849363519229,0,0.21249293429777016,0,234.18691501716586,3.0410611052810954,5.5603017022061447,0.63761158478513236,0.56748988136032474,0.39631298526986075,0.31156791624845059,76.119905415290475,0.24960619559812805,103.29194177865467,188.85061284655890,226.00595045779647,282.93263113145588,93.540498759331612,55.603999999999999,2.0253333333333217,3.1306210041666298,1.7586613108318261,0.34806806804331197
20220320050000,419.91870390373958,4.2143345191553800,0.11981493798761371,0,-42.829950171966424,0,-0.11837548894372583,2,0.44980642263604453,0,232.41638879569811,3.1715268143308757,5.4222051931063433,0.64085902963988162,0.51529957028773010,0.37989214783518804,0.31807209362518546,62.414981224018497,0.30441409461945701,108.62932982246684,198.60906046325499,237.68431991268386,297.55256388324216,93.550195944227426,57.621666666666670,1.6076666666666597,2.9003355312040235,1.4040536549886156,0.29611744320240446
20220320053000,420.17788900007167,4.2181074892006034,9.3041737787098386E-002,0,-28.873670559940724,0,0.15665144583850388,2,0.23395705882819567,1,226.40169362346759,3.3793280670676178,5.6524339634622311,0.60604918698332244,0.53050748227014721,0.36720487579510286,0.28022767114031383,63.318352356271959,0.30007097931249260,100.86418007965170,184.41189016590096,220.69393307463997,276.28261571465760,93.562003626519100,58.052666666666667,1.5180000000000291,2.8524354071385352,1.3021853637695813,0.29989359132775784
20220320060000,420.67137959292478,4.2090222812123388,0.12912091835560263,0,-45.053423664480675,0,-0.52089968369969142,0,0.32097209985501540,0,225.86311774165239,3.4438758154799256,5.7687694392684969,0.69592195479429586,0.57936760438360413,0.43629835782563248,0.32986091580839572,66.191809695239201,0.28704457677588713,100.11351860867856,183.03944158576522,219.05146265247592,274.22643764873874,93.575270442057288,59.579666666666668,1.1286666666666747,2.6727640214321555,0.90131335703540572,0.28924851191477247
20220320063000,421.14996113904414,4.1857927544610094,0.12345328804669801,0,-44.299785262372701,0,1.8325073426097335E-002,2,0.42839745824925912,0,226.21244021569274,3.6281373793171499,5.8077535377760965,0.67309886106249761,0.52779482417892321,0.41065011219923625,0.32227972198644506,62.789263059675697,0.30259950625542720,103.14869253175480,188.58870753622190,225.69251669287272,282.54024925117494,93.591148111291886,60.968333333333334,0.73466666666666924,2.5086596772133709,0.50098078694122705,0.34087702487163773
20220320070000,421.44302401665323,4.1743358760572340,0.13769997781120855,0,-49.200589921236769,0,-0.26545284673837216,0,0.55010954099538922,0,228.40589801681915,3.2686954333635212,5.3320353734341417,0.68997895637847528,0.53200115386880253,0.39928967052128900,0.34019189996746296,66.501752198119235,0.28570675767152715,110.15484775667839,201.39819378598438,241.02220014540057,301.73119384732604,93.604935086217978,61.881999999999998,0.49299999999999500,2.4075115557766815,0.29258742646743485,0.31591294346728160
20220320073000,421.68343717155096,4.1816690459141936,0.11882565777791514,0,-46.074138754189882,0,-0.62685845172898347,1,0.57068663136289910,0,225.66505556184055,3.0939823326400262,5.2940926650652305,0.62798765369563492,0.56352232796744828,0.40503383488805261,0.31592314606884808,56.880006169889626,0.33403653198015942,102.64245079439559,187.66313618280824,224.58484417705870,281.15357470257817,93.617399595703134,62.580666666666666,0.36399999999997590,2.3414159438779745,0.16387365044494118,0.33517454014420400
20220320080000,421.90250526951343,4.2058916424338610,0.13247234947668313,0,-57.974947585522855,0,-1.5491113590931811,0,0.67003399116136697,0,224.90939657917070,3.2227235092314701,5.5957197119397160,0.72131699329529297,0.59086891594355362,0.40341064048661440,0.33343947253311179,53.155499358069044,0.35744184946906693,107.51538854552061,196.57242053564886,235.24698208443490,294.50130614730267,93.636809059895839,63.701333333333331,0.20166666666665378,2.2447258838274853,1.7808144463458575E-002,0.36792050732459930
20220320083000,422.00645897091715,4.2446761395012658,0.10115123136633000,0,-35.819359391273068,0,-1.2890839472354680,0,0.32198130606589237,0,231.56918191679677,3.3529261141638220,6.4235451452449777,0.66320443025302278,0.52252012636914791,0.37623030720211731,0.29143004060831706,57.447151138576920,0.33073876812737396,102.07498658484558,186.62563062432378,223.34321500616983,279.59920231770258,93.649558374975697,63.593000000000004,0.35366666666664059,2.2763673793513930,0.18973908935709005,0.34801370361880157
20220320090000,422.48422662446632,4.2449577639292100,0.10719293014838821,0,-44.846846482889049,0,-1.7182851320478651,0,0.51310158126111172,0,228.51667123196415,3.0217414868713472,6.2412655042859528,0.63115850930633155,0.54422521922996037,0.37649915444472082,0.29984458936994413,49.980024861821931,0.38015187172332648,104.36639173962098,190.81505005344445,228.35688007017512,285.87571603469769,93.667015303602426,64.752333333333340,0.10800000000000409,2.1649680147860240,-0.11667408498129817,0.33653789819722729
20220320093000,422.65521957056711,4.2756794815252688,9.7385128872114507E-002,0,-38.019821028440987,0,-2.7303011717186179,0,0.28558377919752820,0,229.73230806630380,3.1637683992654861,5.3617303244887911,0.58254572315449415,0.57128499325007409,0.38792812827949769,0.28565442303241623,50.984426691728018,0.37266281554721609,98.022696520921357,179.21675197584187,214.47667951794710,268.49935202782382,93.692412141710065,66.212666666666664,-9.6000000000003638E-002,2.0447436981589173,-0.23418469746906112,0.37436192105225991
20220320100000,423.01091746122461,4.3266989039696631,7.0190328719668516E-002,0,-31.055125296676245,0,-2.1398159733095916,0,0.23323475414789385,1,232.20067332581382,2.8451224584685275,5.1301293665357832,0.61556193831239758,0.54530198575398647,0.34973133182658622,0.24254873598295854,38.219186675407578,0.49713250471197734,93.434330702832966,170.82775587615524,204.43719376612219,255.93110719525691,93.719142966405983,66.269666666666666,5.9333333333313476E-002,2.0644639722652891,-0.13045937836682242,0.40060585070601518
20220320103000,423.42517984625550,4.3183160118572985,0.10400683179695919,0,-42.776748589804036,0,-4.2224854612039939,0,0.40633018884854200,0,221.83787878181906,2.5509089312532134,4.6659165664820010,0.61703363027209390,0.55219821584854245,0.37619078715783538,0.29500371580789431,49.929883392758988,0.38053363454791184,103.08378688406860,188.47003931165690,225.55050113635588,282.36246262659483,93.740620419053826,68.079666666666668,-0.33466666666669198,1.8984917779674351,-0.54934264543328482,0.46780687671951948
20220320110000,423.61520895171549,4.3269074602621229,6.8704787682583188E-002,0,-22.063869536221020,0,-1.9886448181161054,0,0.27571631663465085,0,217.75071117441618,2.0714747588054294,4.2144014678547110,0.49016253090282069,0.42260800650000624,0.29188499522853772,0.23959637405710207,51.870144351061164,0.36629934691152055,106.92264088595503,195.48868876679316,233.95003194607051,292.87767847577254,93.762933325737848,69.868333333333325,-0.65966666666668061,1.7501208657770047,-0.78323248460560535,0.45409483841654041
20220320113000,423.56233568197490,4.3524610754295763,8.3403593337785346E-003,0,-1.9578016586389839,2,-0.12835031677648129,2,-3.0743740071119335E-002,2,223.26499254200181,1.7373119724586310,2.8561987871667487,0.32797262880549161,0.25869075433802519,0.14151169964980687,8.3509775937489636E-002,24.754760597674526,0.76752913545788315,503.05976255452072,5474.0000000000000,-9999.,-9999.,93.779226421875009,69.055999999999997,-0.41633333333334122,1.8295027002785116,-0.55671559566923179,0.35942621477517495
20220320120000,424.08674639206328,4.2617732346033987,4.3372253836831340E-002,0,3.7274567886989742,2,0.39597658314816125,2,-0.14889348790841181,2,214.19704316182009,1.9650548885691521,3.3226241872636408,0.47255965380123233,0.42357734676560244,0.24870467649179129,0.19018101423079695,-153.61387765668755,-0.12368674165275093,161.47227166051405,611.00000000000000,882.00000000000000,1567.0000000000000,93.820327953776044,70.697999999999993,-1.0199999999999818,1.6576540516991098,-1.2540525868733425,0.67111597288627600
20220320123000,423.68701662932921,4.3007171727443394,4.6905956197984044E-002,0,-21.158856808482419,0,-3.9489159738708990,0,0.41729253958840651,0,212.28004095287011,2.2705020152229216,3.4914302950509626,0.44851981319626633,0.35575222407404339,0.30305092923057131,0.19771884218224151,30.417103905739207,0.62464855493408800,184.80621952444281,1764.0000000000000,3266.0000000000000,8954.0000000000000,93.857210861111113,71.667333333333332,-1.0763333333333094,1.5962143603043972,-1.2177041676839053,0.58200796217893502
20220320130000,423.82637100446811,4.2635124880629816,2.3062569360172883E-002,0,-7.9539065111189622,0,-0.81435704487094218,0,0.16368023506012916,0,204.74184175264091,1.7545941451527676,3.5144130967143630,0.47541912612415577,0.31139620597495177,0.21911313251074613,0.13865494156478750,27.910713078032526,0.68074219196334995,220.34038528675808,2142.0000000000000,3987.0000000000000,-9999.,93.881828682942711,70.368333333333339,-0.94166666666666288,1.6859487696574535,-1.2487401496038615,0.23726181904048901
20220320133000,423.48682503915347,4.3624804052443089,2.5202489587364277E-002,0,1.1471953973628140,2,-0.31922908328721644,2,0.10855750124609460,1,206.86737384886416,1.3899182964297576,2.5981729014706585,0.38009620050870990,0.28768581963016809,0.21387621240060711,0.14522427439060154,-222.38062690342113,-8.5439097211699164E-002,148.19070372997174,596.00000000000000,873.00000000000000,1592.0000000000000,93.899440275390617,66.510333333333335,0.14933333333334531,2.0631683766855842,-0.16801034206821441,0.36895297962076073
20220320140000,423.63500374452406,4.4723969379183908,8.0900641651535349E-002,1,24.489503347958326,1,1.1187124023439217,2,0.32660882013107517,0,208.66605419649233,1.5533050542593667,3.2992682955762782,0.56020415233707122,0.41806397427864322,0.32284082829455263,0.26066655107492692,-60.254095948484107,-0.31533126007308404,105.51941677149384,192.92314755018074,230.87973435815508,289.03403023046809,93.923636328559041,63.186333333333337,1.2069999999999936,2.4480350998301623,0.85868908437100799,0.44382218543945368
20220320143000,423.66864127257395,4.6519529719007675,7.1084827193538128E-003,0,27.653482560943100,1,2.5703375203141841,0,0.16184730120438506,0,195.58020058040623,0.93416941234299533,2.0670908168299489,0.31647434725123774,0.28022269657517623,0.24114716280197174,7.7538154407019999E-002,-1.4044958802842205,-13.527985568854122,42.430675094178760,121.00000000000000,163.00000000000000,257.00000000000000,93.920194581597229,57.405333333333331,3.1023333333333198,3.2427521760631546,2.8215831493801034,0.68013478409024175
20220320150000,423.66705242180353,4.7267936181330850,5.0045386689338972E-002,1,65.461154021348563,1,10.182452389066322,0,1.9860874545968448,0,203.70145967307931,0.58035122905570868,1.9165732672339142,0.36716025435898436,0.37375603209146685,0.31705950884019657,0.20644563413436004,-11.199792959730539,-1.6964599317429820,88.835558315443507,162.41973324878117,194.37493812009845,243.33435715712693,93.930523087456606,50.925333333333334,5.0356666666666570,4.2797001175274145,4.7064935056899344,0.48513134761753929
20220320153000,424.17340708428395,4.8407374324715073,7.1461392240115079E-002,1,28.237314463048101,2,64.534701732163086,1,15.937410096016139,1,244.81932979295323,0.35060262129954117,2.5701772497385678,0.37715532526100226,0.45745281098254525,0.43919177470780935,0.24737771085759094,-44.674990065702794,-0.42529388304411492,79.107925264713430,144.63451756260994,173.09057735121951,216.68886316861980,93.933665334418407,46.875666666666667,6.5760000000000218,5.1546040501140054,6.1110876159667669,0.42467268236812511
20220320160000,421.15266709344030,4.7106560797401622,0.19185707262216026,1,114.44166131093550,0,8.5653172630532879,1,-0.67384261645901733,2,251.18911611837120,1.7131422919973540,4.4595570312168862,0.82304195668910118,0.69957381457735679,0.53801535625563213,0.40575581186706616,-48.643312516228924,-0.39059839918716488,99.915061914779699,182.67659945480193,218.61723329288620,273.68283401806269,93.937104079861115,43.759000000000000,7.1816666666666720,5.6888003208147238,6.6083593402438510,0.33284791930507845
20220320163000,420.71402825417215,4.8318044506257243,0.36081823787530143,0,126.93123276136733,0,11.794263073154672,0,-0.67512126865384869,2,245.48995135479407,2.2462181563795500,5.6652899725276411,1.0602649085920908,0.92095038656382178,0.64492376303937915,0.55685493381999440,-113.37890722200170,-0.16757967125928483,111.33759960671652,203.56064138720916,243.61009762724291,304.97093440350602,93.952126760863081,43.536999999999999,7.6296666666666511,5.8889503648607961,6.9359880301614680,0.35722416790016220
20220320170000,420.68157596068153,4.8538199110882454,0.28289963118922234,1,154.38557468397036,0,23.034928984651490,0,1.9422057792826017,0,248.94939808849244,2.1873161457197625,5.1521279356503644,1.0182990985383527,1.0333234740749224,0.65798965315245839,0.49356794415329358,-64.910281029505200,-0.29271171991018624,99.484908506065324,181.89014183327882,217.67604438400227,272.50457718967891,93.951793146918405,42.106999999999999,8.1866666666666674,6.2715799987245058,7.4334459465874261,0.43932138786120806
20220320173000,420.10900415091697,4.8216381583957890,0.42903063302158373,1,200.77561373117749,0,28.190904074874538,0,1.3454488547879726,0,233.01372515486480,1.8206315891579412,6.2726108537103453,1.1652277172226910,1.1110378424744443,0.75356336001244273,0.60838357903375484,-93.478770788045068,-0.20325470521088512,105.51180860142803,192.90923738879908,230.86308744768601,289.01319027395510,93.954848498046886,40.339666666666666,8.7213333333333480,6.7016796117564379,7.9760050523545942,0.41543280719116249
20220320180000,419.51990375209209,4.7454796293989814,0.37962356428457739,0,225.94180136573036,0,13.181829467922370,0,-0.32939187991697888,2,220.57997023087884,1.8488709732820021,7.1738940271509239,1.4329600550952235,1.3534633202255464,0.78360115146331577,0.57269638230861264,-69.283608425551563,-0.27423513918759557,97.435764974307759,178.14365391641647,213.19245521388351,266.89165559073592,93.944070733289934,38.680333333333337,9.1056666666666501,7.0692858830948282,8.3152257732815542,0.46872336014891203
20220320183000,418.81166398570940,4.5853992418291352,0.37156137111730086,1,275.35503069750564,0,0.62579828785702041,2,-1.4838495324935062,2,205.83083835751347,2.3186823222380335,6.5202566746243580,1.1513476661873774,1.2865117821688457,0.76892365312076594,0.56683361720710190,-55.120717867666080,-0.34469797809265174,98.109893115166656,179.37617516004966,214.66746835219442,268.73819700847486,93.942936460865866,36.716000000000001,9.3696666666666601,7.4267076089926034,8.5825231163659055,0.54938112160708752
20220320190000,418.42904101293851,4.4123162787631562,0.19998241108287992,0,192.64832330723698,0,18.111342403928042,0,0.63742501459907663,0,216.54261647653379,2.1810243804404923,7.0941495133361192,1.3597138430375706,1.4233597371312940,0.72985260988086376,0.41613925739311847,-31.168637149322201,-0.60958712788676350,79.883616448092567,146.05272843984116,174.78781355515312,218.81360149457007,93.923231055653375,34.494333333333337,9.7226666666666688,7.8720393113871072,8.8291240265033366,0.43103158926279583
20220320193000,418.63797251908591,4.3747038007439976,0.32163875760128591,1,185.14931014071965,0,23.250370632424577,1,-0.62225456609788110,2,229.87373009152975,1.6625996838905677,5.7929111657259238,1.0125697601252825,1.4988072487118533,0.75884516755058706,0.52810575886727573,-66.268240622304518,-0.28671351195651018,93.693418360778537,171.30145074665006,205.00408554274648,256.64078842976511,93.892332024521806,33.521666666666668,10.016666666666652,8.1479766952919892,9.1516800806779202,0.41481539750150093
20220320200000,419.05769495544939,4.4002406894811479,0.26045174237377022,0,221.49102850054331,0,23.897486389421758,1,2.3652545757971728,1,231.28440196852620,1.3754339984357145,6.6038752113631887,1.3342221010882975,1.2794105774114277,0.69858936340812527,0.47556634787967950,-40.447835780911156,-0.46974083120083299,92.054752997992324,168.30544783796475,201.41863525086998,252.15223012934507,93.876727006510407,32.919333333333334,10.372333333333302,8.4197111010426831,9.5355968356662402,0.46174271089930624
20220320203000,419.20690803897423,4.2619412743459417,0.45835109985795897,0,185.98403033478155,0,44.056004496080881,1,1.6545370193415874,1,208.86748941187031,2.4425878114154296,7.5889494204682197,1.3458927072799156,1.4205482350418661,0.88258930381810630,0.63110813931645848,-112.58089171924227,-0.16876753869904310,95.748283473030767,175.05839953746116,209.50019370723740,262.26938232410413,93.882306460286458,31.386333333333333,10.609333333333325,8.7493892193244012,9.6744468222724436,0.40498591020740848
20220320210000,419.14474103376796,4.2231324642925783,0.44729644451318773,0,201.81964405264796,0,6.6565006375702289,1,-1.5191051523476844E-002,2,240.98463480276081,2.0620923648315013,5.8723942019162623,1.2585330894056213,1.0024815629946451,0.77935886066671500,0.62356199445525562,-100.07737779609043,-0.18985309585861515,104.75352061822335,191.52284511195276,229.20392998182922,286.93612200948951,93.892283560320578,30.824666666666666,10.744666666666660,8.9009007100198829,9.8954180523235777,0.37616330980077173
20220320213000,419.25170308303666,4.2727520320034786,0.35918284563431618,0,126.85077210672975,0,3.6673308592241449,1,8.1310145503397838E-002,2,217.18686740235589,1.9683692513170108,7.6748749747444354,1.1839706499243303,1.3611832988068380,0.71279481059040584,0.55891794576428822,-114.65644558161813,-0.16571244559011608,103.07698804473321,188.45760886497325,225.53562506645591,282.34383955233875,93.886989672309028,30.936333333333334,10.865000000000009,8.9579859365300170,10.014161575317416,0.33218821571413948
20220320220000,419.28206767303215,4.3026927599808120,0.34095801027069439,1,151.92825474996624,0,9.8143555555833633,1,0.17659729757365769,1,204.33638202150630,2.1078390412000445,5.6113371761085089,0.97566045505762011,1.1668453693705796,0.67858513470743853,0.54461400538254168,-88.574116109884031,-0.21450962012907721,105.01285622554674,191.99699331298967,229.77136427933010,287.64648241575742,93.895684542100696,30.978333333333332,10.951000000000022,9.0038829585110758,10.135955147637276,0.34089356810118099
20220320223000,419.59230086100274,4.3605789743031087,0.24764042000280126,0,69.412190259341628,0,3.6843611134540750,1,0.38459991636708885,1,210.79069444058456,2.2735149815553450,6.7846516469368581,1.0703302779852193,1.0617719084727382,0.64035672136946509,0.46420620018251646,-120.05177476612209,-0.15826504886757983,96.802388090942813,176.98563896842919,211.80660708228731,265.15673818069916,93.892053906553954,31.261333333333333,11.014666666666642,9.0049868231376831,10.245676551367694,0.23039095259905359